STARLINK-32686 (62192 NORAD) Tracking and Keplerian Element Data

This shows tracking and keplerian element data for the satellite.

Feedback or suggestion? Click here.




ElementValue
Catalog62192
NameSTARLINK-32686
Epoch Orbit1069
Epoch Day34.95982858
Epoch Year2025
RAAN4.0204
Inclination43.0037
Eccentricity0.0002765
Argument of Perigee298.7508
Mean Anonmoly61.3067
Mean Motion15.32082545
Decay Rate5.1E-06
L11 62192U 24229A 25034.95982858 .00000510 00000+0 24853-4 0 9998
L22 62192 43.0037 4.0204 0002765 298.7508 61.3067 15.32082545 10692



Live tracking and technical data element details for STARLINK-32686 (NORAD 62192). STARLINK-32686 can be tracked NOW for your location showing map with azimuth and elevation plus other details from your city location.







IsCatalogInMostPopularTable: catalog: 62192, numindb: 10
Update: records affected: 1



GetName: 62192 STARLINK-32686

Hit Count: updated at: Sat, 24 May 2025 17:17:10 GMT